Regional Weather Roundup
Issued by NWS

Home | Current Version | Previous Version | Text Only | Print | Product List | Glossary Off
Versions: 1 2 3 4 5 6 7 8 9 10 11 12 13 14 15 16 17 18 19 20 21 22 23 24 25 26 27 28 29 30 31 32 33 34 35 36 37 38 39 40 41 42 43 44 45 46 47 48 49 50

000
ASUS45 KABQ 012310
RWRNM
NEW MEXICO REGIONAL WEATHER ROUNDUP
NATIONAL WEATHER SERVICE ALBUQUERQUE NM
500 PM MDT TUE SEP 01 2015

NOTE: "FAIR" MEANS FEW OR NO CLOUDS BELOW 12,000 FEET AGL WITH NO
       SIGNIFICANT WEATHER OR OBSTRUCTIONS TO VISION.

      THIS PRODUCT IS RELEASED AS TWO VERSIONS.  ONE VERSION NEAR
      THE TOP OF THE HOUR CONTAINING PRELIMINARY DATA FROM ALBUQUERQUE
      AND OTHER STATIONS.  A FINAL VERSION WITH ADDITIONAL DATA IS
      ISSUED ABOUT 10 MINUTES AFTER THE HOUR.

NMZ501-503-504-510>518-020000-
NORTHWEST PLATEAU/NORTHCENTRAL MOUNTAINS

CITY           SKY/WX    TMP DP  RH WIND       PRES   REMARKS
FARMINGTON     SUNNY     86  42  21 W9        30.10S
LOS ALAMOS     PTSUNNY   74  45  35 CALM      30.27S
SANTA FE       MOSUNNY   83  40  21 W12       30.18F
TAOS           PTSUNNY   77  43  29 SW13G18   30.27F
ANGEL FIRE     FAIR      67  43  41 W13G23    30.35S

$$
NMZ402-403-502-505>509-020000-
WESTCENTRAL MOUNTAINS/SOUTHWEST MOUNTAINS

CITY           SKY/WX    TMP DP  RH WIND       PRES   REMARKS
GALLUP         PTSUNNY   79  43  27 SW9       30.21R
GRANTS         MOSUNNY   80  46  29 S6        30.22F
SILVER CITY      N/A     84  45  24 N7        30.16F

$$
NMZ407-409-411-412-020000-
SOUTHERN DESERTS

CITY           SKY/WX    TMP DP  RH WIND       PRES   REMARKS
DEMING         SUNNY     93  44  18 N3        30.04F
LAS CRUCES     MOSUNNY   94  36  13 S9G16     30.05S
HOLLOMAN AFB   PTSUNNY   97  41  14 SW10      29.99F
ALAMOGORDO     SUNNY     95  39  14 W8        30.02S
T OR C         PTSUNNY   89  45  21 N8        30.07S

$$
NMZ519>523-020000-
CENTRAL VALLEYS/CENTRAL HIGHLANDS

CITY           SKY/WX    TMP DP  RH WIND       PRES   REMARKS
ALBUQUERQUE    LGT RAIN  82  44  26 SW18G31   30.14S
DOUBLE EAGLE   PTSUNNY   81  46  30 S16G23    30.18R
MORIARTY ARPT  MOCLDY    82  36  18 SW7       30.18F
CLINES CORNERS PTSUNNY   79  41  25 NW8       30.23F
BELEN          FAIR      82  46  27 CALM      30.12F
SOCORRO        PTSUNNY   74  55  49 NW12      30.13F

$$
NMZ524>526-539-540-020000-
SOUTHCENTRAL MOUNTAINS

CITY           SKY/WX    TMP DP  RH WIND       PRES   REMARKS
RUIDOSO        MOSUNNY   77  46  33 MISG      30.25F

$$
NMZ527>531-020000-
NORTHEAST HIGHLANDS/NORTHEAST PLAINS

CITY           SKY/WX    TMP DP  RH WIND       PRES   REMARKS
LAS VEGAS      PTSUNNY   75  49  39 E5        30.23S
RATON          PTSUNNY   81  44  27 S23       30.15S
CLAYTON        PTSUNNY   81  53  37 N9        30.06S THUNDER

$$
NMZ532>537-020000-
EASTCENTRAL PLAINS

CITY           SKY/WX    TMP DP  RH WIND       PRES   REMARKS
TUCUMCARI      MOSUNNY   93  47  20 SW8       29.98F
CANNON AFB     SUNNY     92  51  24 S13G18    30.04S
CLOVIS AIRPORT MOSUNNY   91  54  27 S17       30.06S

$$
NMZ028-029-538-020000-
SOUTHEAST PLAINS

CITY           SKY/WX    TMP DP  RH WIND       PRES   REMARKS
ROSWELL        SUNNY     97  48  18 SE15      29.98F
ARTESIA        SUNNY     95  50  21 S16G24    29.98F
CARLSBAD       MOSUNNY   97  48  18 SE12      29.96F


$$



USA.gov is the U.S. government's official web portal to all federal, state and local government web resources and services.